Location: Unspecified
(40.7945°N, 111.1337°W)
Time: 11:53:07
(UTC-06:00)

Altair - Pass Details

Date: 28 June 2019
Orbit: 1501 x 1683 km, 47.2° (Epoch: 16 August)

Event Time Altitude Azimuth Distance (km) Brightness Sun altitude
Rises 21:55:46 0° 274° (W) 4,703 11.0 -9.2°
Reaches altitude 10° 21:58:52 10° 279° (W) 3,743 10.5 -9.7°
Maximum altitude 22:08:16 60° 358° (N) 1,799 8.1 -11.0°
Drops below altitude 10° 22:18:04 10° 77° (ENE) 3,886 9.3 -12.3°
Sets 22:21:21 0° 82° (E) 4,893 9.8 -12.7°
